Tucson Davis Monthan, AZ

9:37 AM MST on March 25, 2017 (GMT -0700)
Davis-Monthan Air Force Base

Weather History for KDMA - October, 2013

Change the Weather History Date:

Tuesday, October 22, 2013

  Actual Average Record
Temperature  
Mean Temperature 70 °F -  
Max Temperature 87 °F 79 °F 95 °F (2003)
Min Temperature 52 °F 54 °F 41 °F (1996)
Cooling Degree Days 4    
Growing Degree Days 20 (Base 50)    
Moisture  
Dew Point 17 °F    
Average Humidity 14    
Maximum Humidity 22    
Minimum Humidity 6    
Precipitation  
Precipitation 0.00 in - - ()
Sea Level Pressure  
Sea Level Pressure 29.92 in    
Wind  
Wind Speed 8 mph (ESE)    
Max Wind Speed 17 mph    
Max Gust Speed 17 mph    
Visibility 10 miles    
Events      
Averages and records for this station are not official NWS values.
T = Trace of Precipitation, MM = Missing Value Source: NWS Daily Summary

Daily Weather History Graph

Daily Weather History Graph

Search for Another Location

Airport or City:

Trip Planner

Search our weather history database for the weather conditions in past years. The results will help you decide how hot, cold, wet, or windy it might be!

Date:

Astronomy

Oct. 22, 2013 Rise Set
Actual Time 6:32 AM MST 5:42 PM MST
Civil Twilight 6:07 AM MST 6:07 PM MST
Nautical Twilight 5:39 AM MST 6:36 PM MST
Astronomical Twilight 5:10 AM MST 7:04 PM MST
Moon 8:34 PM MST (10/22) 9:55 AM MST (10/22)
Length of Visible Light 11h 59m
Length of Day
11h 10m
Waning Gibbous, 86% of the Moon is Illuminated
Oct 22
Waning Gibbous
Oct 26
Last Quarter
Nov 3
New
Nov 9
First Quarter
Nov 17
Full

Hourly Weather History & Observations

Time (MST) Temp. Dew Point Humidity Pressure Visibility Wind Dir Wind Speed Gust Speed Precip Events Conditions
12:58 AM 56.3 °F 14.7 °F 19% 29.96 in 10.0 mi SE 8.1 mph - N/A   Clear
1:58 AM 55.0 °F 14.2 °F 20% 29.96 in 10.0 mi ESE 4.6 mph - N/A   Clear
2:58 AM 55.2 °F 13.8 °F 19% 29.96 in 10.0 mi SE 9.2 mph - N/A   Clear
3:58 AM 52.9 °F 14.2 °F 22% 29.96 in 10.0 mi SE 11.5 mph - N/A   Clear
4:58 AM 55.4 °F 15.3 °F 21% 29.96 in 10.0 mi SSE 9.2 mph - N/A   Clear
5:58 AM 52.3 °F 14.7 °F 22% 29.98 in 10.0 mi SSE 6.9 mph - N/A   Clear
6:58 AM 54.0 °F 15.1 °F 22% 30.00 in 10.0 mi SSE 6.9 mph - N/A   Clear
7:58 AM 63.9 °F 17.1 °F 16% 29.99 in 10.0 mi SE 12.7 mph - N/A   Clear
8:58 AM 69.4 °F 18.7 °F 14% 29.99 in 10.0 mi SE 13.8 mph - N/A   Clear
9:58 AM 76.8 °F 19.0 °F 11% 29.96 in 10.0 mi East 5.8 mph - N/A   Clear
10:58 AM 81.5 °F 15.3 °F 8% 29.95 in 10.0 mi SE 17.3 mph - N/A   Clear
11:58 AM 84.7 °F 14.7 °F 7% 29.92 in 10.0 mi ESE 11.5 mph - N/A   Clear
12:58 PM 86.9 °F 12.7 °F 6% 29.90 in 10.0 mi ESE 6.9 mph 17.3 mph N/A   Clear
1:58 PM 86.9 °F 12.6 °F 6% 29.88 in 10.0 mi Variable 4.6 mph 17.3 mph N/A   Clear
2:58 PM 87.4 °F 13.1 °F 6% 29.86 in 10.0 mi ENE 8.1 mph - N/A   Clear
3:58 PM 87.1 °F 12.7 °F 6% 29.86 in 10.0 mi East 5.8 mph - N/A   Clear
4:58 PM 85.8 °F 10.2 °F 6% 29.84 in 10.0 mi ENE 6.9 mph - N/A   Clear
5:58 PM 81.3 °F 12.0 °F 7% 29.86 in 10.0 mi ENE 10.4 mph - N/A   Clear
6:58 PM 75.9 °F 18.1 °F 11% 29.88 in 10.0 mi ENE 8.1 mph - N/A   Clear
7:58 PM 72.7 °F 19.6 °F 13% 29.87 in 10.0 mi ENE 11.5 mph - N/A   Clear
8:58 PM 69.4 °F 19.2 °F 15% 29.87 in 10.0 mi SE 6.9 mph - N/A   Clear
9:58 PM 66.0 °F 20.5 °F 18% 29.88 in 10.0 mi SSE 6.9 mph - N/A   Clear
10:03 PM 68.0 °F 21.2 °F 17% 29.99 in 8.0 mi SSE 9.2 mph - N/A   Clear
10:28 PM 68.0 °F 21.2 °F 17% 29.99 in 9.0 mi East 3.5 mph - N/A   Clear
10:58 PM 64.9 °F 21.2 °F 19% 29.88 in 10.0 mi SSW 6.9 mph - N/A   Clear
11:48 PM 73.4 °F 24.8 °F 16% 29.97 in 9.0 mi Variable 3.5 mph - N/A   Clear
11:58 PM 73.6 °F 25.2 °F 16% 29.85 in 10.0 mi Variable 2.3 mph - N/A   Clear